Powrót do katalogu

STRIX-1

AktywnyNaukaSSO
NORAD 53815·PAYLOAD·🇯🇵 Japan

Wystrzelony Sep 15, 2022 z Rocket Lab Launch Complex 1

Loading…

Następne Przeloty (najbliższe 24 godziny)

TLE

ŚwieżeSource: Space-Track

Epoka: Sep 14, 2026, 14:59 UTC

1 53815U 22113A   26257.62460168  .00020163  00000-0  45032-3 0  9995
2 53815  97.4395 321.4437 0002075 263.7754  96.3257 15.43563552221223

Śledź STRIX-1 w czasie rzeczywistym z AllMySat

Download on the App Store